WMT162 LIRN-LATI

Flight info

Callsign WMT162
Flight time 0h 48m
Altitude 30000
Route GALTI DCT LUNAR DCT GOKEL DCT DITAN
Aircraft A21N/M-SDE2E3FGHIRWXY/LB1

Departure

Time 2026-05-07 17:42
Airport Naples International Airport (LIRN)

Arrival

Time 2026-05-07 18:30
Airport Tirana International Airport Mother Teresa (LATI)
Time Latitude Longitude Altitude Speed Heading
2026-05-07 17:14 40.87842 14.28084 300 ft 0 kts 141°
2026-05-07 17:30 40.87857 14.28069 303 ft 4 kts 141°
2026-05-07 17:31 40.87878 14.28047 300 ft 4 kts 137°
2026-05-07 17:31 40.87891 14.28021 301 ft 4 kts 90°
2026-05-07 17:31 40.87885 14.28000 304 ft 3 kts 51°
2026-05-07 17:31 40.87874 14.27982 304 ft 0 kts 51°
2026-05-07 17:35 40.87875 14.27984 304 ft 1 kts 51°
2026-05-07 17:35 40.87890 14.28009 303 ft 6 kts 51°
2026-05-07 17:35 40.87921 14.28059 302 ft 8 kts 51°
2026-05-07 17:35 40.87965 14.28110 298 ft 9 kts 24°
2026-05-07 17:36 40.88024 14.28150 298 ft 10 kts 48°
2026-05-07 17:36 40.88063 14.28234 296 ft 11 kts 69°
2026-05-07 17:36 40.88060 14.28341 293 ft 12 kts 96°
2026-05-07 17:36 40.88050 14.28459 291 ft 14 kts 96°
2026-05-07 17:37 40.88047 14.28586 291 ft 15 kts 74°
2026-05-07 17:37 40.88101 14.28703 286 ft 16 kts 52°
2026-05-07 17:37 40.88172 14.28825 284 ft 18 kts 52°
2026-05-07 17:37 40.88247 14.28955 280 ft 18 kts 52°
2026-05-07 17:38 40.88326 14.29092 277 ft 19 kts 52°
2026-05-07 17:38 40.88408 14.29233 273 ft 20 kts 52°
2026-05-07 17:38 40.88492 14.29380 269 ft 20 kts 53°
2026-05-07 17:38 40.88579 14.29531 265 ft 21 kts 52°
2026-05-07 17:39 40.88670 14.29687 260 ft 22 kts 52°
2026-05-07 17:39 40.88763 14.29848 255 ft 22 kts 53°
2026-05-07 17:39 40.88859 14.30015 250 ft 23 kts 52°
2026-05-07 17:39 40.88927 14.30132 246 ft 9 kts 53°
2026-05-07 17:40 40.88963 14.30184 244 ft 6 kts 17°
2026-05-07 17:40 40.89006 14.30163 243 ft 8 kts 326°
2026-05-07 17:40 40.89055 14.30122 243 ft 9 kts 328°
2026-05-07 17:40 40.89085 14.30090 243 ft 3 kts 284°
2026-05-07 17:41 40.89068 14.30055 244 ft 7 kts 233°
2026-05-07 17:41 40.88958 14.29828 252 ft 65 kts 238°
2026-05-07 17:41 40.88589 14.29042 274 ft 135 kts 238°
2026-05-07 17:41 40.88015 14.27857 633 ft 155 kts 238°
2026-05-07 17:42 40.87371 14.26718 1288 ft 157 kts 226°
2026-05-07 17:42 40.86397 14.25994 1693 ft 173 kts 188°
2026-05-07 17:42 40.85166 14.26219 2077 ft 187 kts 167°
2026-05-07 17:42 40.83841 14.26533 2598 ft 200 kts 171°
2026-05-07 17:43 40.82420 14.26789 3167 ft 212 kts 171°
2026-05-07 17:43 40.80945 14.27034 3820 ft 218 kts 171°
2026-05-07 17:43 40.79436 14.27275 4604 ft 219 kts 172°
2026-05-07 17:43 40.77924 14.27516 5383 ft 220 kts 171°
2026-05-07 17:44 40.76400 14.27756 6159 ft 220 kts 172°
2026-05-07 17:44 40.74883 14.27992 6919 ft 218 kts 172°
2026-05-07 17:44 40.73432 14.28217 7800 ft 207 kts 172°
2026-05-07 17:44 40.72002 14.28443 8538 ft 204 kts 172°
2026-05-07 17:45 40.70595 14.28754 9140 ft 207 kts 164°
2026-05-07 17:45 40.69163 14.29302 9580 ft 221 kts 162°
2026-05-07 17:45 40.67644 14.29897 9982 ft 235 kts 163°
2026-05-07 17:45 40.66003 14.30532 10240 ft 256 kts 163°
2026-05-07 17:46 40.64220 14.31214 10499 ft 278 kts 163°
2026-05-07 17:46 40.62308 14.32049 10758 ft 299 kts 156°
2026-05-07 17:46 40.60533 14.33610 11026 ft 319 kts 136°
2026-05-07 17:46 40.59273 14.36008 11542 ft 329 kts 115°
2026-05-07 17:47 40.58760 14.38973 12199 ft 338 kts 93°
2026-05-07 17:47 40.58978 14.42086 12878 ft 345 kts 83°
2026-05-07 17:47 40.59362 14.45233 13534 ft 351 kts 83°
2026-05-07 17:47 40.59744 14.48438 14136 ft 357 kts 83°
2026-05-07 17:48 40.60098 14.51691 14705 ft 362 kts 84°
2026-05-07 17:48 40.60441 14.54999 15304 ft 367 kts 84°
2026-05-07 17:48 40.60791 14.58344 15914 ft 372 kts 84°
2026-05-07 17:48 40.61147 14.61751 16505 ft 376 kts 84°
2026-05-07 17:49 40.61493 14.65118 17085 ft 381 kts 84°
2026-05-07 17:49 40.61846 14.68609 17678 ft 386 kts 84°
2026-05-07 17:49 40.62204 14.72125 18247 ft 391 kts 84°
2026-05-07 17:49 40.62561 14.75697 18753 ft 395 kts 84°
2026-05-07 17:50 40.62923 14.79261 19256 ft 399 kts 84°
2026-05-07 17:50 40.63292 14.82898 19761 ft 403 kts 84°
2026-05-07 17:50 40.63661 14.86579 20256 ft 407 kts 84°
2026-05-07 17:50 40.64031 14.90290 20745 ft 411 kts 84°
2026-05-07 17:51 40.64397 14.94051 21228 ft 416 kts 84°
2026-05-07 17:51 40.64761 14.97844 21718 ft 420 kts 84°
2026-05-07 17:51 40.65133 15.01665 22192 ft 424 kts 84°
2026-05-07 17:51 40.65509 15.05527 22673 ft 428 kts 84°
2026-05-07 17:52 40.65891 15.09427 23156 ft 432 kts 83°
2026-05-07 17:52 40.66283 15.13371 23608 ft 435 kts 83°
2026-05-07 17:52 40.66675 15.17342 23989 ft 439 kts 83°
2026-05-07 17:52 40.67065 15.21336 24372 ft 442 kts 83°
2026-05-07 17:53 40.67459 15.25362 24772 ft 445 kts 83°
2026-05-07 17:53 40.67859 15.29416 25178 ft 448 kts 83°
2026-05-07 17:53 40.68258 15.33494 25576 ft 451 kts 84°
2026-05-07 17:53 40.68655 15.37604 25955 ft 454 kts 84°
2026-05-07 17:54 40.69051 15.41756 26330 ft 457 kts 84°
2026-05-07 17:54 40.69419 15.45875 26698 ft 459 kts 85°
2026-05-07 17:54 40.69761 15.50122 27062 ft 462 kts 85°
2026-05-07 17:54 40.70095 15.54350 27407 ft 465 kts 85°
2026-05-07 17:55 40.70436 15.58612 27761 ft 468 kts 85°
2026-05-07 17:55 40.70774 15.62828 28111 ft 471 kts 85°
2026-05-07 17:55 40.71119 15.67126 28452 ft 473 kts 85°
2026-05-07 17:55 40.71463 15.71456 28780 ft 476 kts 85°
2026-05-07 17:56 40.71808 15.75812 29101 ft 479 kts 85°
2026-05-07 17:56 40.72159 15.80182 29484 ft 479 kts 85°
2026-05-07 17:56 40.72508 15.84553 29888 ft 480 kts 85°
2026-05-07 17:56 40.72851 15.88907 30001 ft 473 kts 85°
2026-05-07 17:57 40.73402 15.96060 29997 ft 471 kts 85°
2026-05-07 17:57 40.74180 16.06101 29991 ft 471 kts 85°
2026-05-07 17:58 40.74844 16.14706 29988 ft 471 kts 85°
2026-05-07 17:58 40.75493 16.23314 30005 ft 472 kts 85°
2026-05-07 17:59 40.76143 16.31934 30008 ft 472 kts 85°
2026-05-07 17:59 40.76790 16.40560 30010 ft 473 kts 85°
2026-05-07 18:00 40.77429 16.49208 30015 ft 473 kts 85°
2026-05-07 18:00 40.78058 16.57858 30019 ft 474 kts 86°
2026-05-07 18:01 40.78673 16.66504 30013 ft 474 kts 86°
2026-05-07 18:01 40.79291 16.75186 30021 ft 475 kts 86°
2026-05-07 18:02 40.80215 16.88212 30024 ft 476 kts 86°
2026-05-07 18:03 40.80815 16.96861 30022 ft 476 kts 86°
2026-05-07 18:03 40.81412 17.05568 30023 ft 477 kts 86°
2026-05-07 18:04 40.82005 17.14346 30022 ft 477 kts 86°
2026-05-07 18:04 40.82575 17.23023 30017 ft 477 kts 86°
2026-05-07 18:05 40.83167 17.31761 30018 ft 478 kts 86°
2026-05-07 18:05 40.83739 17.40500 30016 ft 478 kts 86°
2026-05-07 18:06 40.84308 17.49240 30023 ft 478 kts 86°
2026-05-07 18:06 40.85513 17.57831 30000 ft 475 kts 64°
2026-05-07 18:07 40.88141 17.64234 30037 ft 474 kts 57°
2026-05-07 18:07 40.91374 17.71837 29769 ft 472 kts 58°
2026-05-07 18:07 40.92927 17.75600 29423 ft 461 kts 59°
2026-05-07 18:08 40.94439 17.79290 29135 ft 450 kts 59°
2026-05-07 18:08 40.95913 17.82897 28847 ft 442 kts 59°
2026-05-07 18:08 40.97368 17.86451 28567 ft 438 kts 59°
2026-05-07 18:08 40.98813 17.89986 28309 ft 435 kts 59°
2026-05-07 18:09 41.00227 17.93454 28061 ft 432 kts 59°
2026-05-07 18:09 41.01646 17.96937 27795 ft 429 kts 59°
2026-05-07 18:09 41.03059 18.00410 27535 ft 426 kts 59°
2026-05-07 18:09 41.04460 18.03860 27283 ft 424 kts 59°
2026-05-07 18:10 41.05848 18.07285 26903 ft 421 kts 59°
2026-05-07 18:10 41.07237 18.10707 26404 ft 419 kts 59°
2026-05-07 18:10 41.08613 18.14103 25877 ft 419 kts 59°
2026-05-07 18:10 41.09995 18.17525 25367 ft 418 kts 60°
2026-05-07 18:11 41.11366 18.20916 24844 ft 417 kts 60°
2026-05-07 18:11 41.12735 18.24314 24301 ft 418 kts 60°
2026-05-07 18:11 41.14103 18.27714 23776 ft 415 kts 60°
2026-05-07 18:11 41.15455 18.31075 23199 ft 412 kts 60°
2026-05-07 18:12 41.16781 18.34370 22655 ft 408 kts 60°
2026-05-07 18:12 41.18113 18.37680 22134 ft 403 kts 60°
2026-05-07 18:12 41.19424 18.40946 21594 ft 400 kts 61°
2026-05-07 18:12 41.20723 18.44184 21115 ft 395 kts 61°
2026-05-07 18:13 41.21985 18.47342 20588 ft 392 kts 61°
2026-05-07 18:13 41.23267 18.50545 20116 ft 388 kts 61°
2026-05-07 18:13 41.24528 18.53693 19613 ft 384 kts 61°
2026-05-07 18:13 41.25772 18.56817 19141 ft 381 kts 62°
2026-05-07 18:14 41.26998 18.59924 18665 ft 377 kts 62°
2026-05-07 18:14 41.28207 18.63001 18191 ft 374 kts 62°
2026-05-07 18:14 41.29408 18.66052 17686 ft 369 kts 62°
2026-05-07 18:14 41.30594 18.69055 17203 ft 364 kts 62°
2026-05-07 18:15 41.31780 18.72000 16760 ft 359 kts 62°
2026-05-07 18:15 41.32954 18.74915 16333 ft 353 kts 62°
2026-05-07 18:15 41.34095 18.77768 15949 ft 346 kts 62°
2026-05-07 18:15 41.35199 18.80546 15569 ft 340 kts 63°
2026-05-07 18:16 41.36307 18.83345 15197 ft 337 kts 63°
2026-05-07 18:16 41.37385 18.86071 14802 ft 337 kts 63°
2026-05-07 18:16 41.38474 18.88836 14417 ft 338 kts 63°
2026-05-07 18:16 41.39566 18.91614 14026 ft 339 kts 63°
2026-05-07 18:17 41.40661 18.94393 13602 ft 340 kts 63°
2026-05-07 18:17 41.41764 18.97186 13185 ft 340 kts 63°
2026-05-07 18:17 41.42861 18.99976 12761 ft 340 kts 63°
2026-05-07 18:17 41.43959 19.02761 12339 ft 339 kts 63°
2026-05-07 18:18 41.45041 19.05529 11923 ft 333 kts 63°
2026-05-07 18:18 41.46103 19.08239 11518 ft 327 kts 63°
2026-05-07 18:18 41.47148 19.10905 11119 ft 321 kts 63°
2026-05-07 18:18 41.48174 19.13522 10730 ft 316 kts 63°
2026-05-07 18:19 41.49180 19.16091 10356 ft 310 kts 64°
2026-05-07 18:19 41.50177 19.18642 9991 ft 309 kts 64°
2026-05-07 18:19 41.51169 19.21182 9562 ft 309 kts 64°
2026-05-07 18:19 41.51827 19.22865 9283 ft 306 kts 64°
2026-05-07 18:20 41.51875 19.22988 9264 ft 306 kts 64°
2026-05-07 18:20 41.52862 19.25523 8833 ft 302 kts 64°
2026-05-07 18:20 41.53823 19.27992 8441 ft 297 kts 64°
2026-05-07 18:20 41.54776 19.30437 8049 ft 297 kts 64°
2026-05-07 18:21 41.55726 19.32876 7689 ft 296 kts 64°
2026-05-07 18:21 41.56657 19.35272 7341 ft 295 kts 64°
2026-05-07 18:21 41.57597 19.37696 6955 ft 292 kts 65°
2026-05-07 18:21 41.58526 19.40089 6580 ft 288 kts 65°
2026-05-07 18:22 41.59442 19.42450 6181 ft 284 kts 65°
2026-05-07 18:22 41.60053 19.44032 5922 ft 283 kts 65°
2026-05-07 18:22 41.61245 19.47121 5415 ft 282 kts 65°
2026-05-07 18:22 41.62147 19.49452 5072 ft 281 kts 64°
2026-05-07 18:23 41.63042 19.51763 4709 ft 280 kts 64°
2026-05-07 18:23 41.63751 19.54157 4317 ft 276 kts 79°
2026-05-07 18:23 41.63995 19.56677 4021 ft 269 kts 86°
2026-05-07 18:23 41.64156 19.59092 3955 ft 252 kts 86°
2026-05-07 18:24 41.64304 19.61356 3950 ft 239 kts 86°
2026-05-07 18:24 41.64448 19.63478 3949 ft 219 kts 86°
2026-05-07 18:24 41.64589 19.65502 3964 ft 219 kts 88°
2026-05-07 18:24 41.64405 19.67489 3968 ft 215 kts 116°
2026-05-07 18:25 41.63473 19.68988 3957 ft 206 kts 150°
2026-05-07 18:25 41.62194 19.69472 3880 ft 182 kts 177°
2026-05-07 18:25 41.60960 19.69525 3604 ft 174 kts 178°
2026-05-07 18:25 41.59793 19.69625 3393 ft 162 kts 175°
2026-05-07 18:26 41.58705 19.69752 3036 ft 157 kts 174°
2026-05-07 18:26 41.57608 19.69896 2850 ft 156 kts 174°
2026-05-07 18:26 41.56574 19.70026 2808 ft 146 kts 174°
2026-05-07 18:26 41.55575 19.70166 2623 ft 145 kts 173°
2026-05-07 18:27 41.54572 19.70301 2428 ft 145 kts 174°
2026-05-07 18:27 41.53569 19.70433 2235 ft 145 kts 174°
2026-05-07 18:27 41.52558 19.70567 2047 ft 146 kts 173°
2026-05-07 18:27 41.51549 19.70706 1856 ft 146 kts 174°
2026-05-07 18:28 41.50536 19.70837 1690 ft 145 kts 174°
2026-05-07 18:28 41.49528 19.70956 1516 ft 145 kts 175°
2026-05-07 18:28 41.48518 19.71077 1312 ft 146 kts 174°
2026-05-07 18:28 41.47516 19.71241 1087 ft 144 kts 173°
2026-05-07 18:29 41.46527 19.71372 913 ft 145 kts 175°
2026-05-07 18:29 41.45527 19.71487 696 ft 143 kts 174°
2026-05-07 18:29 41.44539 19.71635 550 ft 143 kts 174°
2026-05-07 18:29 41.43553 19.71784 335 ft 142 kts 175°
2026-05-07 18:30 41.42568 19.71909 151 ft 141 kts 174°
2026-05-07 18:30 41.41666 19.72032 131 ft 106 kts 172°
2026-05-07 18:30 41.41137 19.72102 136 ft 47 kts 174°
2026-05-07 18:30 41.40919 19.72133 138 ft 29 kts 174°
2026-05-07 18:31 41.40716 19.72160 139 ft 30 kts 174°
2026-05-07 18:31 41.40504 19.72187 137 ft 31 kts 174°
2026-05-07 18:31 41.40316 19.72213 138 ft 12 kts 174°
2026-05-07 18:31 41.40259 19.72175 138 ft 11 kts 225°
2026-05-07 18:32 41.40242 19.72075 138 ft 12 kts 263°
2026-05-07 18:32 41.40255 19.71957 138 ft 14 kts 308°
2026-05-07 18:32 41.40338 19.71874 138 ft 16 kts 325°
2026-05-07 18:32 41.40432 19.71800 138 ft 15 kts 354°
2026-05-07 18:33 41.40548 19.71786 137 ft 19 kts 355°
2026-05-07 18:33 41.40690 19.71768 137 ft 22 kts 354°
2026-05-07 18:33 41.40848 19.71741 137 ft 24 kts 348°
2026-05-07 18:33 41.41015 19.71706 136 ft 25 kts 355°
2026-05-07 18:34 41.41190 19.71683 135 ft 26 kts 354°
2026-05-07 18:34 41.41373 19.71659 134 ft 27 kts 354°
2026-05-07 18:34 41.41563 19.71633 132 ft 28 kts 353°
2026-05-07 18:34 41.41756 19.71606 129 ft 28 kts 354°
2026-05-07 18:35 41.41916 19.71586 127 ft 15 kts 354°
2026-05-07 18:35 41.42006 19.71573 124 ft 8 kts 354°
2026-05-07 18:35 41.42050 19.71568 124 ft 6 kts 352°
2026-05-07 18:35 41.42070 19.71549 127 ft 1 kts 284°
2026-05-07 18:36 41.42069 19.71535 126 ft 2 kts 264°
2026-05-07 18:36 41.42067 19.71512 127 ft 3 kts 264°
2026-05-07 18:36 41.42066 19.71500 127 ft 0 kts 264°